2016-10-20 00:03:16 r, 19.33m,0000000002Hz,0000293669c,0000000.637s, 012.5C,00002191
2016-10-20 00:13:16 r, 18.83m,0000000003Hz,0000186170c,0000000.404s, 012.5C,00002191
2016-10-20 00:23:16 r, 18.68m,0000000003Hz,0000161227c,0000000.350s, 012.5C,00002191
2016-10-20 00:33:17 r, 18.70m,0000000003Hz,0000164058c,0000000.356s, 012.5C,00002191
2016-10-20 00:43:16 r, 18.68m,0000000003Hz,0000162109c,0000000.352s, 012.5C,00002191
2016-10-20 00:53:17 r, 18.47m,0000000003Hz,0000134486c,0000000.292s, 012.5C,00002191
2016-10-20 01:03:16 r, 18.43m,0000000003Hz,0000128720c,0000000.279s, 012.5C,00002191
2016-10-20 01:13:17 r, 18.34m,0000000004Hz,0000118864c,0000000.258s, 012.8C,00002191
2016-10-20 01:23:17 r, 18.20m,0000000004Hz,0000104020c,0000000.226s, 012.8C,00002191
2016-10-20 01:33:16 r, 18.17m,0000000004Hz,0000101592c,0000000.220s, 012.8C,00002191
2016-10-20 01:43:16 r, 17.90m,0000000006Hz,0000079594c,0000000.173s, 012.8C,00002191
2016-10-20 01:53:16 r, 18.07m,0000000005Hz,0000092831c,0000000.201s, 012.8C,00002191
2016-10-20 02:03:16 r, 17.93m,0000000006Hz,0000081530c,0000000.177s, 012.8C,00002191
2016-10-20 02:13:16 r, 17.71m,0000000006Hz,0000066972c,0000000.145s, 013.2C,00002191
2016-10-20 02:23:17 r, 17.66m,0000000007Hz,0000063507c,0000000.138s, 013.2C,00002191
2016-10-20 02:33:16 r, 17.53m,0000000009Hz,0000056098c,0000000.122s, 013.5C,00002191
2016-10-20 02:43:16 r, 17.49m,0000000009Hz,0000054532c,0000000.118s, 013.5C,00002191
2016-10-20 02:53:16 r, 17.55m,0000000008Hz,0000057303c,0000000.124s, 013.8C,00002191
2016-10-20 03:03:17 r, 17.56m,0000000008Hz,0000057840c,0000000.126s, 013.8C,00002191
2016-10-20 03:13:17 r, 17.56m,0000000007Hz,0000057825c,0000000.125s, 014.1C,00002191
2016-10-20 03:23:16 r, 17.49m,0000000008Hz,0000054226c,0000000.118s, 014.5C,00002191
2016-10-20 03:33:16 r, 17.47m,0000000008Hz,0000053554c,0000000.116s, 014.5C,00002191
2016-10-20 03:43:16 r, 17.49m,0000000008Hz,0000054054c,0000000.117s, 014.5C,00002191
2016-10-20 03:53:16 r, 17.50m,0000000008Hz,0000054928c,0000000.119s, 014.5C,00002191
2016-10-20 04:03:17 r, 17.57m,0000000008Hz,0000058591c,0000000.127s, 014.5C,00002191
2016-10-20 04:13:16 r, 17.59m,0000000008Hz,0000059178c,0000000.128s, 014.5C,00002191
2016-10-20 04:23:16 r, 17.62m,0000000007Hz,0000061189c,0000000.133s, 014.5C,00002191
2016-10-20 04:33:16 r, 17.66m,0000000007Hz,0000063900c,0000000.139s, 014.5C,00002191
2016-10-20 04:43:16 r, 17.68m,0000000007Hz,0000064926c,0000000.141s, 014.5C,00002191
2016-10-20 04:53:16 r, 17.65m,0000000007Hz,0000063200c,0000000.137s, 014.5C,00002191
2016-10-20 05:03:16 r, 17.72m,0000000007Hz,0000067119c,0000000.146s, 014.5C,00002191
2016-10-20 05:13:16 r, 17.71m,0000000007Hz,0000066867c,0000000.145s, 014.5C,00002191
2016-10-20 05:23:16 r, 17.74m,0000000007Hz,0000068271c,0000000.148s, 014.5C,00002191
2016-10-20 05:33:16 r, 17.78m,0000000006Hz,0000071046c,0000000.154s, 014.8C,00002191
2016-10-20 05:43:16 r, 17.78m,0000000006Hz,0000071272c,0000000.155s, 014.8C,00002191
2016-10-20 05:53:16 r, 17.74m,0000000007Hz,0000068170c,0000000.148s, 015.1C,00002191
2016-10-20 06:03:16 r, 17.87m,0000000006Hz,0000076848c,0000000.167s, 015.1C,00002191
2016-10-20 06:13:16 r, 17.94m,0000000005Hz,0000082375c,0000000.179s, 015.1C,00002191
2016-10-20 06:23:17 r, 18.12m,0000000004Hz,0000097087c,0000000.211s, 015.1C,00002191
2016-10-20 06:33:16 r, 17.98m,0000000005Hz,0000085610c,0000000.186s, 015.1C,00002191
2016-10-20 06:43:16 r, 18.14m,0000000005Hz,0000099014c,0000000.215s, 015.1C,00002191
2016-10-20 06:53:16 r, 17.80m,0000000007Hz,0000072376c,0000000.157s, 015.1C,00002191
2016-10-20 07:03:16 r, 17.39m,0000000010Hz,0000049887c,0000000.108s, 015.1C,00002191
2016-10-20 07:13:16 r, 16.26m,0000000026Hz,0000017587c,0000000.038s, 015.1C,00002191
2016-10-20 07:23:16 r, 14.29m,0000000162Hz,0000000000c,0000000.000s, 015.1C,00002191
2016-10-20 07:33:17 r, 12.28m,0000001035Hz,0000000000c,0000000.000s, 015.1C,00002191
2016-10-20 07:43:16 r, 10.26m,0000006637Hz,0000000000c,0000000.000s, 015.1C,00002191
2016-10-20 07:53:16 r, 08.99m,0000021392Hz,0000000000c,0000000.000s, 015.1C,00002191
2016-10-20 08:03:16 r, 07.92m,0000057393Hz,0000000000c,0000000.000s, 015.1C,00002191
2016-10-20 08:13:17 r, 07.32m,0000099743Hz,0000000000c,0000000.000s, 015.1C,00002191
2016-10-20 08:23:16 r, 06.78m,0000163919Hz,0000000000c,0000000.000s, 014.8C,00002191
2016-10-20 08:33:16 r, 06.29m,0000258436Hz,0000000000c,0000000.000s, 015.1C,00002191
2016-10-20 08:43:16 r, 06.02m,0000330122Hz,0000000000c,0000000.000s, 015.1C,00002191
2016-10-20 08:53:17 r, 00.00m,0000449399Hz,0000000000c,0000000.000s, 015.1C,00002191
2016-10-20 09:03:17 r, 00.00m,0000588583Hz,0000000000c,0000000.000s, 015.4C,00002191
2016-10-20 09:13:17 r, 00.00m,0000597067Hz,0000000000c,0000000.000s, 015.7C,00002191
2016-10-20 09:23:16 r, 00.00m,0000597092Hz,0000000000c,0000000.000s, 016.1C,00002191
2016-10-20 09:33:16 r, 00.00m,0000597044Hz,0000000000c,0000000.000s, 016.1C,00002191
2016-10-20 09:43:16 r, 00.00m,0000596978Hz,0000000000c,0000000.000s, 016.4C,00002191
2016-10-20 09:53:16 r, 00.00m,0000597067Hz,0000000000c,0000000.000s, 016.7C,00002191
2016-10-20 10:03:16 r, 00.00m,0000596874Hz,0000000000c,0000000.000s, 017.0C,00002191
2016-10-20 10:13:16 r, 00.00m,0000596828Hz,0000000000c,0000000.000s, 017.4C,00002191
2016-10-20 10:23:16 r, 00.00m,0000596939Hz,0000000000c,0000000.000s, 017.7C,00002191
2016-10-20 10:33:16 r, 00.00m,0000596911Hz,0000000000c,0000000.000s, 018.0C,00002191
2016-10-20 10:43:16 r, 00.00m,0000596806Hz,0000000000c,0000000.000s, 018.0C,00002191
2016-10-20 10:53:16 r, 00.00m,0000596801Hz,0000000000c,0000000.000s, 018.3C,00002191
2016-10-20 11:03:16 r, 00.00m,0000596780Hz,0000000000c,0000000.000s, 018.6C,00002191
2016-10-20 11:13:16 r, 00.00m,0000596624Hz,0000000000c,0000000.000s, 019.3C,00002191
2016-10-20 11:23:16 r, 00.00m,0000596525Hz,0000000000c,0000000.000s, 019.6C,00002191
2016-10-20 11:33:17 r, 00.00m,0000596563Hz,0000000000c,0000000.000s, 020.6C,00002191
2016-10-20 11:43:17 r, 00.00m,0000596500Hz,0000000000c,0000000.000s, 020.9C,00002191
2016-10-20 11:53:16 r, 00.00m,0000596381Hz,0000000000c,0000000.000s, 021.5C,00002191
2016-10-20 12:03:17 r, 00.00m,0000596281Hz,0000000000c,0000000.000s, 022.5C,00002191
2016-10-20 12:13:16 r, 00.00m,0000596332Hz,0000000000c,0000000.000s, 022.5C,00002191
2016-10-20 12:23:16 r, 00.00m,0000596284Hz,0000000000c,0000000.000s, 023.2C,00002191
2016-10-20 12:33:17 r, 00.00m,0000596184Hz,0000000000c,0000000.000s, 022.8C,00002191
2016-10-20 12:43:17 r, 00.00m,0000596255Hz,0000000000c,0000000.000s, 022.8C,00002191
2016-10-20 12:53:17 r, 00.00m,0000596304Hz,0000000000c,0000000.000s, 022.8C,00002191
2016-10-20 13:03:16 r, 00.00m,0000596252Hz,0000000000c,0000000.000s, 022.8C,00002191
2016-10-20 13:13:16 r, 00.00m,0000596286Hz,0000000000c,0000000.000s, 023.2C,00002191
2016-10-20 13:23:17 r, 00.00m,0000596253Hz,0000000000c,0000000.000s, 023.5C,00002191
2016-10-20 13:33:17 r, 00.00m,0000596199Hz,0000000000c,0000000.000s, 024.1C,00002191
2016-10-20 13:43:16 r, 00.00m,0000596011Hz,0000000000c,0000000.000s, 025.1C,00002191
2016-10-20 13:53:16 r, 00.00m,0000595906Hz,0000000000c,0000000.000s, 025.7C,00002191
2016-10-20 14:03:17 r, 00.00m,0000595951Hz,0000000000c,0000000.000s, 026.1C,00002191
2016-10-20 14:13:16 r, 00.00m,0000595835Hz,0000000000c,0000000.000s, 026.4C,00002191
2016-10-20 14:23:16 r, 00.00m,0000595879Hz,0000000000c,0000000.000s, 026.4C,00002191
2016-10-20 14:33:17 r, 00.00m,0000596036Hz,0000000000c,0000000.000s, 025.7C,00002191
2016-10-20 14:43:16 r, 00.00m,0000596035Hz,0000000000c,0000000.000s, 025.4C,00002191
2016-10-20 14:53:16 r, 00.00m,0000595998Hz,0000000000c,0000000.000s, 025.1C,00002191
2016-10-20 15:03:16 r, 00.00m,0000595999Hz,0000000000c,0000000.000s, 025.1C,00002191
2016-10-20 15:13:16 r, 00.00m,0000595977Hz,0000000000c,0000000.000s, 024.8C,00002191
2016-10-20 15:23:16 r, 00.00m,0000595972Hz,0000000000c,0000000.000s, 025.4C,00002191
2016-10-20 15:33:17 r, 00.00m,0000596009Hz,0000000000c,0000000.000s, 025.4C,00002191
2016-10-20 15:43:16 r, 00.00m,0000596138Hz,0000000000c,0000000.000s, 025.1C,00002191
2016-10-20 15:53:16 r, 00.00m,0000596167Hz,0000000000c,0000000.000s, 024.1C,00002191
2016-10-20 16:03:16 r, 00.00m,0000596239Hz,0000000000c,0000000.000s, 023.5C,00002191
2016-10-20 16:13:16 r, 00.00m,0000596299Hz,0000000000c,0000000.000s, 022.8C,00002191
2016-10-20 16:23:16 r, 00.00m,0000596328Hz,0000000000c,0000000.000s, 022.8C,00002191
2016-10-20 16:33:16 r, 00.00m,0000596449Hz,0000000000c,0000000.000s, 021.9C,00002191
2016-10-20 16:43:16 r, 00.00m,0000596555Hz,0000000000c,0000000.000s, 021.5C,00002191
2016-10-20 16:53:16 r, 00.00m,0000596562Hz,0000000000c,0000000.000s, 020.9C,00002191
2016-10-20 17:03:17 r, 00.00m,0000596500Hz,0000000000c,0000000.000s, 020.9C,00002191
2016-10-20 17:13:16 r, 00.00m,0000596589Hz,0000000000c,0000000.000s, 020.6C,00002191
2016-10-20 17:23:17 r, 00.00m,0000596595Hz,0000000000c,0000000.000s, 020.6C,00002191
2016-10-20 17:33:17 r, 00.00m,0000495232Hz,0000000000c,0000000.000s, 020.6C,00002191
2016-10-20 17:43:16 r, 05.87m,0000379133Hz,0000000000c,0000000.000s, 020.3C,00002191
2016-10-20 17:53:17 r, 05.82m,0000396153Hz,0000000000c,0000000.000s, 019.9C,00002191
2016-10-20 18:03:16 r, 06.20m,0000279819Hz,0000000000c,0000000.000s, 019.6C,00002191
2016-10-20 18:13:16 r, 06.79m,0000163636Hz,0000000000c,0000000.000s, 019.3C,00002191
2016-10-20 18:23:16 r, 07.45m,0000089074Hz,0000000000c,0000000.000s, 019.0C,00002191
2016-10-20 18:33:16 r, 08.83m,0000024731Hz,0000000000c,0000000.000s, 019.0C,00002191
2016-10-20 18:43:16 r, 09.92m,0000009127Hz,0000000000c,0000000.000s, 018.6C,00002191
2016-10-20 18:53:17 r, 11.96m,0000001394Hz,0000000000c,0000000.000s, 018.6C,00002191
2016-10-20 19:03:16 r, 14.03m,0000000207Hz,0000000000c,0000000.000s, 018.3C,00002191
2016-10-20 19:13:16 r, 15.99m,0000000034Hz,0000013716c,0000000.030s, 018.3C,00002191
2016-10-20 19:23:16 r, 17.67m,0000000007Hz,0000064365c,0000000.140s, 018.0C,00002191
2016-10-20 19:33:17 r, 18.98m,0000000003Hz,0000216012c,0000000.469s, 018.0C,00002191
2016-10-20 19:43:16 r, 19.87m,0000000001Hz,0000480942c,0000001.044s, 018.0C,00002191
2016-10-20 19:53:17 r, 20.22m,0000000001Hz,0000667910c,0000001.449s, 017.7C,00002191
2016-10-20 20:03:16 r, 20.37m,0000000000Hz,0000762728c,0000001.655s, 017.4C,00002191
2016-10-20 20:13:16 r, 20.18m,0000000001Hz,0000642096c,0000001.393s, 017.0C,00002191
2016-10-20 20:23:16 r, 20.36m,0000000001Hz,0000759095c,0000001.647s, 017.0C,00002191
2016-10-20 20:33:16 r, 20.41m,0000000001Hz,0000798580c,0000001.733s, 016.7C,00002191
2016-10-20 20:43:17 r, 20.45m,0000000000Hz,0000825539c,0000001.792s, 016.7C,00002191
2016-10-20 20:53:17 r, 20.41m,0000000001Hz,0000797489c,0000001.731s, 016.4C,00002191
2016-10-20 21:03:17 r, 20.25m,0000000001Hz,0000686173c,0000001.489s, 016.1C,00002191
2016-10-20 21:13:16 r, 20.30m,0000000000Hz,0000713216c,0000001.548s, 016.1C,00002191
2016-10-20 21:23:16 r, 20.22m,0000000000Hz,0000664086c,0000001.441s, 016.4C,00002191
2016-10-20 21:33:16 r, 20.30m,0000000001Hz,0000712882c,0000001.547s, 016.4C,00002191
2016-10-20 21:43:17 r, 20.39m,0000000001Hz,0000774496c,0000001.681s, 016.4C,00002191
2016-10-20 21:53:17 r, 20.78m,0000000000Hz,0001109549c,0000002.408s, 016.1C,00002191
2016-10-20 22:03:16 r, 20.76m,0000000001Hz,0001085846c,0000002.356s, 015.7C,00002191
2016-10-20 22:13:17 r, 20.68m,0000000001Hz,0001008980c,0000002.190s, 015.1C,00002191
2016-10-20 22:23:16 r, 20.49m,0000000001Hz,0000843903c,0000001.831s, 014.5C,00002191
2016-10-20 22:33:17 r, 20.58m,0000000000Hz,0000923094c,0000002.003s, 014.1C,00002191
2016-10-20 22:43:17 r, 20.50m,0000000001Hz,0000859143c,0000001.864s, 013.8C,00002191
2016-10-20 22:53:16 r, 20.35m,0000000000Hz,0000747757c,0000001.623s, 013.5C,00002191
2016-10-20 23:03:16 r, 20.32m,0000000000Hz,0000721331c,0000001.565s, 013.2C,00002191
2016-10-20 23:13:16 r, 20.27m,0000000001Hz,0000696605c,0000001.512s, 013.2C,00002191
2016-10-20 23:23:16 r, 20.28m,0000000001Hz,0000700860c,0000001.521s, 012.8C,00002191
2016-10-20 23:33:17 r, 20.17m,0000000001Hz,0000638156c,0000001.385s, 012.8C,00002191
2016-10-20 23:43:16 r, 20.16m,0000000001Hz,0000631502c,0000001.370s, 012.8C,00002191
2016-10-20 23:53:17 r, 20.09m,0000000001Hz,0000593166c,0000001.287s, 012.8C,00002191
